Simultaneous Nadir Overpasses (SNOs) Predictions

Prediction of SNOs between METOP-A and TERRA Satellite Orbit:

Table of predicted SNOs for the next 14.0 days since TLE Epoch: 7/21/2018
Index Date (METOP-A) Time (METOP-A) Lat,Lon (METOP-A) SZA (METOP-A ) Date (TERRA) Time (TERRA) Lat,Lon (TERRA) SZA (TERRA ) Distance(km) Time Diff (sec)
1 07/21/2018 13:41:41 -81.42,-155.81 116.03 07/21/2018 13:42:27 -81.43,-155.95 116.02 2.31 46
2 07/21/2018 14:32:22 81.42, 11.45 63.97 07/21/2018 14:31:54 81.41, 11.39 63.95 1.43 28
3 07/24/2018 09:15:58 -81.42, -89.47 115.48 07/24/2018 09:16:42 -81.43, -89.51 115.46 0.92 44
4 07/24/2018 10:06:38 81.42, 78.15 64.57 07/24/2018 10:06:08 81.43, 78.19 64.56 1.21 30
5 07/27/2018 04:50:15 -81.42, -23.15 114.88 07/27/2018 04:50:57 -81.42, -23.10 114.85 0.91 42
6 07/27/2018 05:40:55 81.42, 144.42 65.16 07/27/2018 05:40:23 81.43, 144.59 65.17 2.85 32
7 07/30/2018 00:24:31 -81.42, 43.16 114.24 07/30/2018 00:25:11 -81.42, 43.29 114.20 2.22 40
8 07/30/2018 01:15:10 81.42,-148.91 65.84 07/30/2018 01:14:37 81.42,-149.03 65.81 1.98 33
9 08/01/2018 19:58:47 -81.42, 109.85 113.51 08/01/2018 19:59:26 -81.42, 109.67 113.52 3.01 39




NCC Satellite Simultaneous Nadir Overpasses (SNOs) Prediction Service
